Lid_Strength_Index
2 2 2 2 3 3 3 3 3 3 3 2 2 2 2 3 3 2 3 1 -1 -1 -1 -1 -1 -1 -0 -0 0 0 0 1 1 2 2 2 2 3 3 3 4 4 3
2 2 2 2 2 3 3 3 3 3 3 2 3 2 2 3 3 4 4 3 1 -1 -1 -1 -1 -1 -1 -1 -1 -0 0 0 1 2 2 2 2 2 3 3 4 4 4
2 2 2 2 2 2 3 4 4 3 3 3 3 3 2 2 3 4 4 4 3 1 -0 -1 -1 -2 -2 -2 -1 -1 -0 -0 1 2 2 2 2 2 3 3 4 4 4
2 2 2 3 2 2 2 4 4 4 4 4 3 3 3 2 3 3 4 4 4 3 2 -0 -1 -2 -2 -2 -2 -1 -1 1 1 1 1 1 1 2 2 3 4 4 4
1 2 2 2 3 3 3 3 4 4 4 4 4 4 3 3 3 2 3 4 4 3 4 2 0 -1 -2 -2 -2 -2 -1 -1 0 1 1 1 1 1 2 2 3 3 3
1 1 2 3 3 3 3 4 4 4 4 3 3 3 3 3 2 3 3 3 4 4 4 4 3 2 0 -1 -2 -2 -2 -1 -0 1 1 1 1 1 2 2 3 3 3
1 1 1 2 3 3 3 3 4 4 4 4 5 4 3 3 3 3 2 3 4 4 4 4 3 4 2 -0 -1 -1 -2 -2 -1 -0 -0 0 0 0 1 1 2 3 3
1 1 1 1 2 3 3 4 4 4 4 3 4 5 5 5 3 3 3 3 4 4 4 4 3 4 4 4 2 -1 -1 -2 -1 -1 -1 -0 0 -0 -0 0 1 2 2
2 1 1 1 2 2 3 3 4 4 4 4 3 4 6 7 7 5 4 3 4 5 4 3 4 4 4 4 4 2 0 -0 -1 -1 -0 -1 -1 -1 -1 -0 0 1 1
1 2 1 2 2 2 2 3 3 4 4 4 5 3 3 6 7 7 7 7 5 5 5 4 3 4 4 5 5 5 4 2 1 1 0 0 -0 -1 -2 -1 -1 1 1
1 1 2 2 2 2 2 2 2 3 3 4 4 5 4 3 5 7 7 7 8 7 5 4 3 4 5 5 5 6 5 4 3 3 2 2 1 0 -1 -2 -1 -0 1
1 1 1 2 2 2 2 2 2 2 3 3 3 3 4 6 5 6 6 6 7 7 7 6 6 5 5 6 6 7 7 6 4 4 4 3 3 2 1 0 -0 -1 0
1 1 1 2 2 2 2 2 2 2 2 3 3 3 3 3 4 4 5 6 6 6 6 7 6 6 6 5 5 8 8 6 5 5 4 4 3 3 3 2 2 -0 0
1 1 1 1 1 1 1 2 2 2 2 2 2 2 2 3 3 3 5 5 6 6 7 6 6 6 6 5 6 9 7 7 6 5 5 4 4 4 3 4 2 1 1
1 1 1 1 1 1 2 2 2 2 2 2 2 2 2 2 2 3 3 4 5 7 5 5 5 5 5 5 7 8 8 8 7 7 6 5 5 4 4 3 3 3 1
1 1 1 1 1 1 1 1 2 1 2 2 2 2 2 2 2 2 3 3 3 5 6 4 5 5 7 9 10 9 10 11 9 8 7 6 6 5 5 4 3 2 2
1 1 1 1 1 1 1 1 1 1 2 2 2 2 2 2 2 2 1 2 2 3 4 3 3 6 9 10 11 11 11 11 10 9 8 7 6 6 6 4 3 3 3
2 1 1 1 2 2 1 1 2 2 2 2 2 2 2 2 2 2 2 2 2 2 4 5 4 11 10 11 12 12 12 12 11 10 9 8 7 7 6 5 4 4 4
2 2 2 2 2 2 1 1 1 2 2 2 2 2 2 2 2 2 2 3 2 3 3 3 4 13 14 13 15 14 14 13 12 11 9 8 8 7 6 5 5 5 5
4 2 3 3 2 2 2 2 2 2 2 2 2 2 2 2 2 2 3 3 3 3 3 5 9 13 14 15 15 15 15 14 14 12 11 10 9 8 6 6 5 7 6
7 6 4 4 4 4 3 6 3 2 2 2 3 2 2 4 8 5 3 3 3 4 6 10 13 14 15 16 16 14 14 14 14 14 14 13 13 12 9 7 8 7 6
9 8 8 7 7 5 7 8 9 7 6 5 4 4 4 11 9 10 9 8 5 5 10 10 13 13 14 14 14 14 14 15 14 14 14 14 13 13 13 11 8 6 6
9 9 9 8 8 8 8 8 9 8 7 5 6 7 9 11 11 10 11 11 11 10 9 9 12 12 13 13 13 14 14 14 14 14 14 14 13 13 13 11 7 7 6
10 9 9 8 9 9 8 8 9 9 8 8 8 8 9 10 11 11 12 13 13 13 12 12 12 12 12 12 12 13 13 14 15 14 14 14 14 14 13 12 9 7 7
11 10 9 10 10 10 9 9 9 11 11 11 11 11 10 11 10 10 12 13 14 14 11 10 10 10 10 11 12 13 14 14 16 15 14 14 14 14 14 14 13 9 8
11 11 10 10 11 12 10 9 10 12 12 13 13 12 13 11 10 10 12 13 13 13 13 13 13 12 12 12 11 13 13 13 15 16 14 15 15 15 17 17 15 14 12